Location: Flitcham
(52.8000°N, 0.5667°E)
Time: 11:15:32
(UTC+00:00)

Cosmos 2034 Rocket - Pass Details

Date: 15 May 2026
Orbit: 956 x 1001 km, 82.9° (Epoch: 8 June)

Event Time Altitude Azimuth Distance (km) Brightness Sun altitude
Exits shadow 21:58:34 15° 179° (S) 2,400 5.5 -13.9°
Maximum altitude 22:03:55 75° 96° (E) 1,035 4.0 -14.3°
Drops below altitude 10° 22:10:14 10° 13° (NNE) 2,761 7.1 -14.7°
Sets 22:12:45 0° 12° (NNE) 3,708 7.9 -14.9°
